DW9945 Weather Reports


Display with metric or nautical units.
time (UTC)temp
F
wind
direction
speed
MPH
gust
MPH
rain 1hr
in
rain 24hr
in
rain mn
in
humidity
%
barometer
mb
20260507012507 50 16 1.0 3.0 0.00 0.00 0.00 72 1011.1
20260507012018 51 14 2.0 3.0 0.00 0.00 0.00 71 1011.0
20260507011519 51 27 2.0 3.0 0.00 0.00 0.00 71 1011.0
20260507011008 51 27 2.0 5.0 0.00 0.00 0.00 70 1010.9
20260507010520 51 26 2.0 6.0 0.00 0.00 0.00 70 1011.0
20260507010007 51 36 1.0 3.0 0.00 0.00 0.00 69 1011.0
20260507005507 52 21 1.0 3.0 0.00 0.00 0.00 68 1011.1
20260507005007 52 30 2.0 3.0 0.00 0.00 0.00 68 1011.1
20260507004507 52 46 2.0 6.0 0.00 0.00 0.00 67 1011.1
20260507004007 52 46 3.0 6.0 0.00 0.00 0.00 67 1011.1
20260507003507 52 51 4.0 9.0 0.00 0.00 0.00 67 1011.2
20260507003007 52 47 5.0 10.0 0.00 0.00 0.00 66 1011.1
20260507002507 52 63 5.0 9.0 0.00 0.00 0.00 67 1011.3
20260507002007 52 57 3.0 9.0 0.00 0.00 0.00 66 1011.3
20260507001508 52 45 5.0 10.0 0.00 0.00 0.00 66 1011.3
20260507001008 52 30 5.0 12.0 0.00 0.00 0.00 66 1011.2
20260507000508 53 53 5.0 9.0 0.00 0.00 0.00 66 1011.2
20260506235510 53 56 7.0 12.0 0.00 0.00 0.00 65 1011.2
20260506235007 53 55 6.0 12.0 0.00 0.00 0.00 64 1011.0
20260506234507 53 45 7.0 15.0 0.00 0.00 0.00 64 1010.9
20260506234007 53 31 6.0 10.0 0.00 0.00 0.00 64 1010.8
20260506233507 53 29 6.0 13.0 0.00 0.00 0.00 64 1010.9
20260506233007 53 35 5.0 12.0 0.00 0.00 0.00 63 1010.9
20260506232507 53 34 5.0 12.0 0.00 0.00 0.00 63 1010.9
20260506232007 53 35 5.0 12.0 0.00 0.00 0.00 62 1010.9
20260506231508 53 36 6.0 12.0 0.00 0.00 0.00 63 1010.9
20260506230508 51 37 2.0 6.0 0.00 0.00 0.00 65 1010.9
20260506230007 51 11 2.0 6.0 0.00 0.00 0.00 65 1010.9
20260506225507 51 355 5.0 6.0 0.00 0.00 0.00 63 1011.0
20260506225007 51 356 5.0 7.0 0.00 0.00 0.00 62 1011.0
20260506224507 51 352 5.0 8.0 0.00 0.00 0.00 60 1010.9
20260506224007 51 357 5.0 9.0 0.00 0.00 0.00 58 1010.8
20260506223508 52 14 4.0 7.0 0.00 0.00 0.00 57 1010.8
20260506222507 52 16 5.0 7.0 0.00 0.00 0.00 55 1010.9
20260506222007 52 15 5.0 7.0 0.00 0.00 0.00 55 1010.9
20260506221508 52 14 4.0 7.0 0.00 0.00 0.00 55 1010.9
20260506221007 51 30 3.0 5.0 0.00 0.00 0.00 55 1010.9
20260506220508 51 14 2.0 5.0 0.00 0.00 0.00 57 1010.9
20260506220007 51 8 3.0 5.0 0.00 0.00 0.00 56 1010.9
20260506215507 51 0 3.0 5.0 0.00 0.00 0.00 56 1010.9
20260506215007 51 7 3.0 5.0 0.00 0.00 0.00 56 1010.8
20260506214507 51 9 3.0 3.0 0.00 0.00 0.00 56 1010.8
20260506214007 51 7 2.0 3.0 0.00 0.00 0.00 57 1010.9
20260506213508 51 3 3.0 5.0 0.00 0.00 0.00 56 1010.8
20260506213007 52 8 3.0 3.0 0.00 0.00 0.00 55 1010.8
20260506212008 53 25 2.0 3.0 0.00 0.00 0.00 53 1010.7
20260506211507 53 17 2.0 3.0 0.00 0.00 0.00 52 1010.7
20260506211007 53 15 2.0 3.0 0.00 0.00 0.00 51 1010.6
20260506210507 54 15 2.0 3.0 0.00 0.00 0.00 49 1010.7
20260506205507 54 15 2.0 3.0 0.00 0.00 0.00 49 1010.8
20260506204508 54 15 2.0 3.0 0.00 0.00 0.00 48 1010.8
20260506203508 54 15 2.0 3.0 0.00 0.00 0.00 49 1010.8
20260506203007 55 15 2.0 3.0 0.00 0.00 0.00 50 1010.8
20260506202007 56 15 2.0 3.0 0.00 0.00 0.00 47 1010.6
20260506201507 56 14 2.0 3.0 0.00 0.00 0.00 46 1010.7
20260506201007 56 5 3.0 3.0 0.00 0.00 0.00 45 1010.6
20260506200507 56 5 3.0 3.0 0.00 0.00 0.00 45 1010.5
20260506195507 56 12 2.0 3.0 0.00 0.00 0.00 46 1010.4
20260506195007 56 22 2.0 3.0 0.00 0.00 0.00 50 1010.4
20260506194507 56 22 2.0 3.0 0.00 0.00 0.00 50 1010.4
20260506193507 58 22 2.0 3.0 0.00 0.00 0.00 48 1010.3
20260506193007 59 22 2.0 3.0 0.00 0.00 0.00 45 1010.3
20260506192007 62 355 0.0 0.0 0.00 0.00 0.00 34 1010.3
20260506191007 62 355 0.0 0.0 0.00 0.00 0.00 35 1010.3
20260506190507 63 355 0.0 0.0 0.00 0.00 0.00 32 1010.3
20260506190008 63 355 0.0 0.0 0.00 0.00 0.00 33 1010.3
20260506185507 63 355 0.0 0.0 0.00 0.00 0.00 33 1010.3
20260506185006 64 355 0.0 0.0 0.00 0.00 0.00 37 1010.3
20260506184507 64 355 0.0 1.0 0.00 0.00 0.00 35 1010.3
20260506184007 64 355 1.0 2.0 0.00 0.00 0.00 36 1010.2
20260506183507 65 355 1.0 2.0 0.00 0.00 0.00 36 1010.2
20260506183008 65 355 2.0 3.0 0.00 0.00 0.00 34 1010.2
20260506182007 65 355 2.0 3.0 0.00 0.00 0.00 30 1010.1
20260506181507 65 358 3.0 3.0 0.00 0.00 0.00 31 1010.1
20260506181007 66 5 2.0 3.0 0.00 0.00 0.00 31 1010.1
20260506180008 67 269 0.0 2.0 0.00 0.00 0.00 31 1010.1
20260506175506 67 269 2.0 3.0 0.00 0.00 0.00 28 1010.2
20260506175007 67 250 1.0 3.0 0.00 0.00 0.00 29 1010.1
20260506174507 66 0 1.0 3.0 0.00 0.00 0.00 30 1010.2
20260506174007 66 292 2.0 3.0 0.00 0.00 0.00 29 1010.2
20260506173507 66 9 2.0 3.0 0.00 0.00 0.00 29 1010.3
20260506173007 67 299 1.0 3.0 0.00 0.00 0.00 30 1010.4
20260506172507 66 313 2.0 6.0 0.00 0.00 0.00 29 1010.4
20260506172007 67 292 3.0 3.0 0.00 0.00 0.00 29 1010.4
20260506171507 67 282 1.0 3.0 0.00 0.00 0.00 29 1010.3
20260506171007 67 261 2.0 6.0 0.00 0.00 0.00 29 1010.4
20260506170506 67 286 2.0 3.0 0.00 0.00 0.00 30 1010.4
20260506165506 67 234 2.0 3.0 0.00 0.00 0.00 29 1010.5
20260506165007 67 231 2.0 6.0 0.00 0.00 0.00 29 1010.5
20260506164507 66 239 1.0 2.0 0.00 0.00 0.00 29 1010.5
20260506163006 66 122 2.0 3.0 0.00 0.00 0.00 30 1010.6
20260506162506 66 140 4.0 8.0 0.00 0.00 0.00 30 1010.6
20260506162007 66 116 2.0 8.0 0.00 0.00 0.00 30 1010.6
20260506161507 66 147 1.0 7.0 0.00 0.00 0.00 30 1010.6
20260506161006 66 162 3.0 8.0 0.00 0.00 0.00 30 1010.6
20260506160506 66 136 2.0 5.0 0.00 0.00 0.00 30 1010.6
20260506155507 65 133 3.0 8.0 0.00 0.00 0.00 31 1010.5
20260506155006 65 101 3.0 8.0 0.00 0.00 0.00 31 1010.6
20260506153506 67 241 2.0 3.0 0.00 0.00 0.00 31 1010.8
20260506153007 65 328 2.0 5.0 0.00 0.00 0.00 33 1011.0
20260506152506 65 293 3.0 8.0 0.00 0.00 0.00 33 1011.0
20260506152006 66 338 2.0 6.0 0.00 0.00 0.00 30 1011.0
20260506151506 66 301 3.0 5.0 0.00 0.00 0.00 32 1011.0
20260506151007 65 251 1.0 5.0 0.00 0.00 0.00 30 1011.1
20260506150012 65 320 2.0 3.0 0.00 0.00 0.00 33 1011.3
20260506145507 64 213 3.0 5.0 0.00 0.00 0.00 34 1011.4
20260506145006 63 131 1.0 3.0 0.00 0.00 0.00 34 1011.5
20260506144507 64 209 2.0 3.0 0.00 0.00 0.00 34 1011.6
20260506143507 64 211 2.0 8.0 0.00 0.00 0.00 35 1011.6
20260506143007 63 190 1.0 6.0 0.00 0.00 0.00 36 1011.6
20260506142506 64 141 2.0 6.0 0.00 0.00 0.00 35 1011.8
20260506142006 64 174 2.0 5.0 0.00 0.00 0.00 36 1011.8
20260506141507 64 132 2.0 6.0 0.00 0.00 0.00 35 1011.9
20260506141006 65 195 3.0 7.0 0.00 0.00 0.00 35 1011.9
20260506140507 65 42 1.0 8.0 0.00 0.00 0.00 35 1011.9
20260506135506 64 14 2.0 7.0 0.00 0.00 0.00 38 1011.9
20260506135006 63 12 3.0 9.0 0.00 0.00 0.00 39 1012.0
20260506134506 63 325 6.0 10.0 0.00 0.00 0.00 39 1012.0
20260506134007 64 24 3.0 7.0 0.00 0.00 0.00 37 1012.1
20260506133007 63 203 5.0 7.0 0.00 0.00 0.00 36 1012.3
20260506132508 64 189 3.0 6.0 0.00 0.00 0.00 36 1012.3
20260506131506 64 140 2.0 8.0 0.00 0.00 0.00 36 1012.5
20260506131006 63 157 3.0 6.0 0.00 0.00 0.00 37 1012.5
20260506130506 63 60 4.0 8.0 0.00 0.00 0.00 37 1012.5
20260506130007 63 65 4.0 6.0 0.00 0.00 0.00 38 1012.5
20260506125007 62 61 5.0 10.0 0.00 0.00 0.00 37 1012.7
20260506124507 63 87 3.0 7.0 0.00 0.00 0.00 38 1012.8
20260506123507 62 56 2.0 5.0 0.00 0.00 0.00 39 1012.7
20260506123007 63 226 3.0 7.0 0.00 0.00 0.00 38 1012.8
20260506122507 63 285 5.0 7.0 0.00 0.00 0.00 42 1012.8
20260506122007 62 289 2.0 3.0 0.00 0.00 0.00 40 1012.9
20260506121006 61 266 2.0 8.0 0.00 0.00 0.00 42 1013.2
20260506120506 61 324 6.0 10.0 0.00 0.00 0.00 42 1013.2
20260506120007 61 114 3.0 6.0 0.00 0.00 0.00 42 1013.1
20260506115506 62 20 3.0 6.0 0.00 0.00 0.00 44 1013.2
20260506115007 61 155 3.0 7.0 0.00 0.00 0.00 43 1013.2
20260506114507 60 116 5.0 9.0 0.00 0.00 0.00 43 1013.2
20260506113506 60 19 5.0 8.0 0.00 0.00 0.00 44 1013.3
20260506113007 61 68 5.0 8.0 0.00 0.00 0.00 44 1013.3
20260506112507 60 233 1.0 5.0 0.00 0.00 0.00 43 1013.4
20260506111507 60 102 4.0 9.0 0.00 0.00 0.00 44 1013.5
20260506111007 60 112 5.0 10.0 0.00 0.00 0.00 44 1013.5
20260506110007 60 11 1.0 5.0 0.00 0.00 0.00 47 1013.5
20260506105506 59 14 1.0 6.0 0.00 0.00 0.00 47 1013.6
20260506105006 59 23 3.0 10.0 0.00 0.00 0.00 47 1013.6
20260506104006 58 292 3.0 6.0 0.00 0.00 0.00 46 1013.4
20260506103506 58 337 2.0 6.0 0.00 0.00 0.00 45 1013.5
20260506103006 58 69 5.0 10.0 0.00 0.00 0.00 48 1013.6
20260506102507 57 52 3.0 10.0 0.00 0.00 0.00 52 1013.6
20260506102008 57 333 6.0 9.0 0.00 0.00 0.00 51 1013.7
20260506101008 57 27 3.0 8.0 0.00 0.00 0.00 51 1013.9
20260506100508 57 11 3.0 7.0 0.00 0.00 0.00 52 1013.9
20260506100008 57 154 5.0 8.0 0.00 0.00 0.00 51 1013.9
20260506095508 57 356 2.0 5.0 0.00 0.00 0.00 52 1013.9
20260506095008 57 9 3.0 9.0 0.00 0.00 0.00 52 1013.9
20260506094008 57 64 2.0 6.0 0.00 0.00 0.00 53 1014.0
20260506093508 56 45 2.0 12.0 0.00 0.00 0.00 54 1013.9
20260506093008 56 133 6.0 9.0 0.00 0.00 0.00 53 1013.9
20260506092508 56 11 2.0 6.0 0.00 0.00 0.00 56 1013.9
20260506092008 56 148 3.0 7.0 0.00 0.00 0.00 53 1013.9
20260506091508 56 64 4.0 8.0 0.00 0.00 0.00 54 1013.9
20260506091008 55 43 3.0 7.0 0.00 0.00 0.00 54 1014.0
20260506090008 55 104 5.0 8.0 0.00 0.00 0.00 57 1014.1
20260506085508 55 107 7.0 9.0 0.00 0.00 0.00 56 1014.1
20260506085008 55 68 4.0 9.0 0.00 0.00 0.00 59 1014.0
20260506084508 55 123 5.0 10.0 0.00 0.00 0.00 59 1013.9
20260506083508 54 62 3.0 10.0 0.00 0.00 0.00 60 1013.9
20260506083008 54 60 4.0 7.0 0.00 0.00 0.00 60 1014.0
20260506082508 53 104 6.0 10.0 0.00 0.00 0.00 62 1013.9
20260506080508 52 58 2.0 5.0 0.00 0.00 0.00 67 1014.1
20260506073008 50 96 3.0 3.0 0.00 0.00 0.00 69 1014.0
20260506072507 50 41 2.0 5.0 0.00 0.00 0.00 70 1014.1
20260506072008 50 26 3.0 7.0 0.00 0.00 0.00 70 1014.0
20260506071508 49 47 3.0 8.0 0.00 0.00 0.00 72 1014.0
20260506071008 49 11 4.0 9.0 0.00 0.00 0.00 73 1014.0
20260506070508 48 41 3.0 8.0 0.00 0.00 0.00 74 1014.0
20260506062508 46 10 3.0 5.0 0.00 0.00 0.00 79 1013.6
20260506062008 45 14 3.0 7.0 0.00 0.00 0.00 79 1013.6
20260506061508 45 5 4.0 5.0 0.00 0.00 0.00 79 1013.6
20260506061007 45 350 3.0 5.0 0.00 0.00 0.00 79 1013.6
20260506060508 45 15 3.0 7.0 0.00 0.00 0.00 78 1013.6
20260506051008 43 11 5.0 8.0 0.00 0.00 0.00 82 1013.0
20260506050508 43 4 5.0 8.0 0.00 0.00 0.00 81 1013.0
20260506045008 43 13 5.0 8.0 0.00 0.00 0.00 81 1013.0
20260506044508 43 11 5.0 9.0 0.00 0.00 0.00 82 1012.9
20260506044008 43 14 5.0 8.0 0.00 0.00 0.00 82 1012.9
20260506043508 43 7 4.0 8.0 0.00 0.00 0.00 82 1012.9
20260506043007 43 6 3.0 7.0 0.00 0.00 0.00 82 1013.0
20260506042507 43 1 5.0 6.0 0.00 0.00 0.00 82 1013.0
20260506041508 42 20 3.0 7.0 0.00 0.00 0.00 83 1012.9
20260506041007 42 15 3.0 5.0 0.00 0.00 0.00 83 1012.8
20260506040508 42 8 2.0 5.0 0.00 0.00 0.00 83 1012.9
20260506040008 42 352 3.0 5.0 0.00 0.00 0.00 83 1012.9
20260506035508 43 352 3.0 5.0 0.00 0.00 0.00 82 1012.9
20260506035007 43 5 3.0 5.0 0.00 0.00 0.00 82 1012.9
20260506034508 43 21 3.0 5.0 0.00 0.00 0.00 81 1013.0
20260506034008 43 11 3.0 3.0 0.00 0.00 0.00 81 1013.0
20260506033508 43 354 3.0 5.0 0.00 0.00 0.00 82 1013.1
20260506033008 43 24 2.0 3.0 0.00 0.00 0.00 82 1013.1
20260506032007 43 25 2.0 6.0 0.00 0.00 0.00 82 1013.3
20260506031508 43 349 4.0 6.0 0.00 0.00 0.00 81 1013.3
20260506031008 43 6 3.0 5.0 0.00 0.00 0.00 81 1013.2
20260506030507 44 355 4.0 7.0 0.00 0.00 0.00 81 1013.2
20260506030008 43 3 3.0 6.0 0.00 0.00 0.00 81 1013.3
20260506025508 43 1 4.0 7.0 0.00 0.00 0.00 81 1013.3
20260506025008 44 359 4.0 6.0 0.00 0.00 0.00 80 1013.2
20260506024508 44 358 3.0 6.0 0.00 0.00 0.00 79 1013.2
20260506024007 44 0 3.0 5.0 0.00 0.00 0.00 80 1013.2
20260506023008 44 10 3.0 3.0 0.00 0.00 0.00 80 1013.2
20260506022508 44 15 0.0 3.0 0.00 0.00 0.00 79 1013.2
20260506021508 45 4 3.0 5.0 0.00 0.00 0.00 78 1013.1
20260506021007 45 24 3.0 5.0 0.00 0.00 0.00 78 1013.2
20260506020507 45 27 2.0 6.0 0.00 0.00 0.00 78 1013.2
20260506020008 45 25 2.0 5.0 0.00 0.00 0.00 78 1013.1
20260506015007 45 16 3.0 7.0 0.00 0.00 0.00 78 1013.1
20260506014508 44 31 3.0 5.0 0.00 0.00 0.00 79 1013.2
20260506014008 44 32 3.0 3.0 0.00 0.00 0.00 79 1013.2
20260506013508 44 19 2.0 3.0 0.00 0.00 0.00 78 1013.1
20260506013008 45 18 1.0 3.0 0.00 0.00 0.00 78 1013.2